This demonstration page uses our WeatherBlox Daily Observations layout. Learn more.

Left ArrowRight Arrow

Hourly Observations for December 10, 2021

Temp ( °F °C ) Dew Point ( °F °C ) Humidity (%) Winds ( mph kmh ) Pressure ( in mb ) Visibility ( mi km ) Precip ( " mm )
12:53 am 00:53 Clear 15 -9.4 8 -13.3 74 74 WSW 12 19 29.79 1009 10 16 0.00 0.00
1:53 am 01:53 Clear 13 -10.6 7 -13.9 77 77 W 7 11 29.80 1009 10 16 0.00 0.00
2:53 am 02:53 Clear 11 -11.7 6 -14.4 81 81 W 9 15 29.81 1009 10 16 0.00 0.00
3:53 am 03:53 Clear 10 -12.2 6 -14.4 84 84 W 9 15 29.81 1010 10 16 0.00 0.00
4:53 am 04:53 Mostly Clear 16 -8.9 9 -12.8 74 74 SW 12 19 29.82 1010 10 16 0.00 0.00
5:53 am 05:53 Clear 16 -8.9 10 -12.2 77 77 SW 14 22 29.84 1011 10 16 0.00 0.00
6:53 am 06:53 Cloudy 20 -6.7 13 -10.6 74 74 SW 14 22 29.84 1011 10 16 0.00 0.00
7:53 am 07:53 Cloudy 20 -6.7 13 -10.6 74 74 SW 15 24 29.86 1011 10 16 0.00 0.00
8:53 am 08:53 Cloudy 20 -6.7 12 -11.1 71 71 SW 14 22 29.88 1012 10 16 0.00 0.00
9:53 am 09:53 Mostly Sunny 18 -7.8 11 -11.7 74 74 SW 13 20 29.89 1012 10 16 0.00 0.00
10:53 am 10:53 Sunny 22 -5.6 13 -10.6 68 68 WSW 12 19 29.89 1012 10 16 0.00 0.00
11:53 am 11:53 Sunny 24 -4.4 15 -9.4 68 68 SW 15 24 29.87 1012 10 16 0.00 0.00
12:53 pm 12:53 Sunny 26 -3.3 15 -9.4 63 63 SW 18 30 29.85 1011 10 16 0.00 0.00
1:53 pm 13:53 Sunny 26 -3.3 14 -10 60 60 SW 18 30 29.85 1011 10 16 0.00 0.00
2:53 pm 14:53 Sunny 27 -2.8 16 -8.9 63 63 WSW 6 9 29.83 1010 10 16 0.00 0.00
3:53 pm 15:53 Sunny 26 -3.3 15 -9.4 63 63 SW 13 20 29.84 1010 10 16 0.00 0.00
4:53 pm 16:53 Clear 24 -4.4 12 -11.1 60 60 WSW 17 28 29.83 1010 10 16 0.00 0.00
5:53 pm 17:53 Clear 24 -4.4 13 -10.6 62 62 WSW 16 26 29.83 1010 10 16 0.00 0.00
6:53 pm 18:53 Clear 19 -7.2 11 -11.7 71 71 SW 17 28 29.83 1010 10 16 0.00 0.00
7:53 pm 19:53 Clear 20 -6.7 11 -11.7 68 68 SW 18 30 29.80 1009 10 16 0.00 0.00
8:53 pm 20:53 Clear 24 -4.4 13 -10.6 62 62 SW 21 33 29.77 1008 10 16 0.00 0.00
9:53 pm 21:53 Clear 24 -4.4 13 -10.6 62 62 SW 23 37 29.76 1008 10 16 0.00 0.00
10:53 pm 22:53 Clear 25 -3.9 14 -10 63 63 SW 23 37 29.75 1008 10 16 0.00 0.00
11:53 pm 23:53 Clear 26 -3.3 15 -9.4 63 63 SW 24 39 29.74 1007 10 16 0.00 0.00

Powered by AerisWeather